Regional Weather Roundup
Issued by NWS New Orleans/Baton Rouge, LA

Home | Current Version | Previous Version | Graphics & Text | Print | Product List | Glossary On
Versions: 1 2 3 4 5 6 7 8 9 10 11 12 13 14 15 16 17 18 19 20 21 22 23 24 25 26 27 28 29 30 31 32 33 34 35 36 37 38 39 40 41 42 43 44 45 46 47 48 49 50
596
ASUS44 KLIX 220105
RWRLIX
NEW ORLEANS REGIONAL WEATHER ROUNDUP
NATIONAL WEATHER SERVICE NEW ORLEANS LA
800 PM CDT SUN SEP 21 2014

NOTE: "FAIR" INDICATES FEW OR NO CLOUDS BELOW 12,000 FEET WITH NO
      SIGNIFICANT WEATHER AND/OR OBSTRUCTIONS TO VISIBILITY.
      SKY/WX - SKY CONDITION AND SIGNIFICANT WEATHER.
      TMP - AIR TEMPERATURE.     DP    - DEWPOINT TEMPERATURE.
      RH  - RELATIVE HUMIDITY.   PRES  - PRESSURE.
      HI  - HEAT INDEX.          WCI   - WIND CHILL INDEX.

*  THESE STATIONS ARE NOT NWS OR FAA STATIONS AND ARE NOT UNDER
   NWS QUALITY CONTROL.

LAZ038-040-048-061>063-065>067-069-220200-
SOUTHEAST LOUISIANA

CITY           SKY/WX    TMP DP  RH WIND       PRES   REMARKS
N.O. AUDUBON   NOT AVBL
N.O. INTL ARPT PTCLDY    83  64  52 E3        29.98R
N.O. LAKEFRONT CLEAR     82  67  60 SE6       29.99R
N.O. DOWNTOWN*   N/A     82  64  54 E3        29.99S
SLIDELL        CLEAR     76  70  82 CALM      29.99R
BATON ROUGE    CLEAR     76  70  82 CALM      29.99R
BOOTHVILLE     CLEAR     82  73  74 E9        29.98R
BELLE CHASSE   CLEAR     74  69  85 CALM      29.98R
BOGALUSA*        N/A     76  70  82 CALM      30.00R
GALLIANO*      NOT AVBL
NEW ROADS*       N/A     76  71  84 CALM      29.99R
GONZALES*        N/A     74  74 100 CALM      29.98R
HAMMOND*       CLEAR     77  68  73 CALM      30.00R
HOUMA*         CLEAR     76  63  63 CALM      29.98R
PORT FOURCHON* MOCLDY    81  73  78 NE10      30.00S

$$

MSZ070-080>082-220200-
SOUTHERN MISSISSIPPI

CITY           SKY/WX    TMP DP  RH WIND       PRES   REMARKS
MCCOMB         CLEAR     76  67  73 CALM      30.00R
GULFPORT       CLEAR     77  71  82 CALM      29.99R
BILOXI         CLEAR     81  70  69 SE3       29.99R
PASCAGOULA     CLEAR     73  70  90 CALM      29.99R

$$

COASTAL OBSERVATIONS
LAKE AND NEARSHORE STATIONS

STATION/POSITION TIME  TEMP    WIND        PRES    WAVE
                       AIR SEA DIR/SP/G            HT/PER
                 (UTC) (F)     (DEG/KT/KT) (MB)    (FT/S)
PASCAGOULA       0100   82     150/  3/  7 1015.0
WAVELAND YACHT   0100   82     150/  7/  9 1014.9
GRAND ISLE       0100   82 83   70/  9/ 13 1015.7
SOUTHWEST PASS   0100   85 90   60/ 14/ 17 1015.1
NEW CANAL        0100   82 82   CALM  /  2 1015.9
SHELL BEACH      0100   81 79   90/  7/  9 1015.3

OFFSHORE STATIONS

STATION/POSITION TIME  TEMP    WIND        PRES    WAVE
                       AIR SEA DIR/SP/G            HT/PER
                 (UTC) (F)     (DEG/KT/KT) (MB)    (FT/S)
64 S DAUPHIN ISL 0006   82 84   80/ 16/ 17 1015.5    3/ 6

$$




USA.gov is the U.S. government's official web portal to all federal, state and local government web resources and services.